This demonstration page uses our WeatherBlox Daily Observations layout. Learn more.

36.17497, -115.13722

Hourly Observations for June 6, 2016

Temp ( °F °C ) Dew Point ( °F °C ) Humidity (%) Winds ( mph kmh ) Pressure ( in mb ) Visibility ( mi km ) Precip ( " mm )
12:53 am 00:53 Clear 88 31.1 27 -2.8 11 11 SW 5 7 29.64 1004 10 16.0934 0 0
1:53 am 01:53 Clear 82 27.8 28 -2.2 14 14 ESE 6 9 29.64 1004 10 16.0934 0 0
2:53 am 02:53 Clear 81 27.2 26 -3.3 13 13 NE 3 6 29.64 1004 10 16.0934 0 0
3:53 am 03:53 Clear 79 26.1 27 -2.8 15 15 NW 5 7 29.65 1004 10 16.0934 0 0
4:53 am 04:53 Clear 78 25.6 32 0 19 19 W 3 6 29.64 1004 10 16.0934 0 0
5:53 am 05:53 Sunny 78 25.6 27 -2.8 15 15 NW 7 11 29.65 1004 10 16.0934 0 0
6:53 am 06:53 Sunny 82 27.8 28 -2.2 14 14 NW 8 13 29.67 1005 10 16.0934 0 0
7:53 am 07:53 Sunny 88 31.1 29 -1.7 12 12 NW 9 15 29.68 1005 10 16.0934 0 0
8:53 am 08:53 Sunny 90 32.2 31 -0.6 12 12 NNW 8 13 29.69 1005 10 16.0934 0 0
9:53 am 09:53 Sunny 93 33.9 31 -0.6 11 11 W 5 7 29.68 1005 10 16.0934 0 0
10:53 am 10:53 Sunny 95 35 31 -0.6 10 10 VRB 3 6 29.69 1005 10 16.0934 0 0
11:53 am 11:53 Sunny 98 36.7 30 -1.1 9 9 S 7 11 29.68 1005 10 16.0934 0 0
12:53 pm 12:53 Sunny 99 37.2 31 -0.6 9 9 S 12 19 29.66 1004 10 16.0934 0 0
1:53 pm 13:53 Sunny 101 38.3 28 -2.2 8 8 SE 12 19 29.64 1004 10 16.0934 0 0
2:53 pm 14:53 Sunny 103 39.4 26 -3.3 6 6 E 8 13 29.62 1003 10 16.0934 0 0
3:53 pm 15:53 Sunny 103 39.4 25 -3.9 6 6 SSE 10 17 29.6 1002 10 16.0934 0 0
4:53 pm 16:53 Sunny 103 39.4 27 -2.8 7 7 SE 12 19 29.58 1002 10 16.0934 0 0
5:53 pm 17:53 Sunny 103 39.4 23 -5 6 6 S 8 13 29.57 1001 10 16.0934 0 0
6:53 pm 18:53 Sunny 102 38.9 22 -5.6 6 6 S 9 15 29.57 1001 10 16.0934 0 0
7:53 pm 19:53 Sunny 99 37.2 26 -3.3 7 7 SE 7 11 29.58 1002 10 16.0934 0 0
8:53 pm 20:53 Clear 97 36.1 29 -1.7 9 9 WSW 6 9 29.59 1002 10 16.0934 0 0
9:53 pm 21:53 Clear 95 35 28 -2.2 9 9 SW 7 11 29.6 1002 10 16.0934 0 0
10:53 pm 22:53 Clear 90 32.2 30 -1.1 12 12 NW 6 9 29.62 1003 10 16.0934 0 0
11:53 pm 23:53 Clear 88 31.1 27 -2.8 11 11 W 6 9 29.63 1004 10 16.0934 0 0

Powered by AerisWeather